Weather History for KDWX - December, 2013

Change the Weather History Date:

Sunday, December 15, 2013

  Actual Average (KCAG) Record (KCAG)
Temperature  
Mean Temperature 24 °F 17 °F  
Max Temperature 38 °F 30 °F 50 °F (2002)
Min Temperature 9 °F 4 °F -15 °F (2005)
Degree Days  
Heating Degree Days 42 48  
Month to date heating degree days 679  
Since 1 July heating degree days 2764  
Cooling Degree Days 0 0  
Month to date cooling degree days 0  
Year to date cooling degree days 142  
Moisture  
Dew Point 17 °F    
Average Humidity 65    
Maximum Humidity 86    
Minimum Humidity 44    
Precipitation  
Precipitation 0.00 in 0.03 in 0.14 in (2010)
Month to date precipitation 0.53  
Year to date precipitation 15.59  
Sea Level Pressure  
Sea Level Pressure 30.39 in    
Wind  
Wind Speed 5 mph (West)    
Max Wind Speed 14 mph    
Max Gust Speed 20 mph    
Visibility 10 miles    
Events      
T = Trace of Precipitation, MM = Missing Value Source: NWS Daily Summary

Daily Weather History Graph

Daily Weather History Graph

Search for Another Location

Airport or City:

Trip Planner

Search our weather history database for the weather conditions in past years. The results will help you decide how hot, cold, wet, or windy it might be!

Date:

Astronomy

Dec. 15, 2013 Rise Set
Actual Time 7:28 AM MST 4:42 PM MST
Civil Twilight 6:56 AM MST 5:13 PM MST
Nautical Twilight 6:22 AM MST 5:48 PM MST
Astronomical Twilight 5:48 AM MST 6:21 PM MST
Moon 3:49 PM MST (12/15) 5:46 AM MST (12/15)
Length of Visible Light 10h 16m
Length of Day
9h 14m
Waxing Gibbous, 98% of the Moon is Illuminated
Dec 15
Waxing Gibbous
Dec 17
Full
Dec 25
Last Quarter
Jan 1
New
Jan 7
First Quarter

Hourly Weather History & Observations

Time (MST) Temp. Windchill Dew Point Humidity Pressure Visibility Wind Dir Wind Speed Gust Speed Precip Events Conditions
12:15 AM 27.0 °F 20.5 °F 18.1 °F 69% 30.41 in 10.0 mi WSW 5.8 mph - N/A   Overcast
12:35 AM 28.2 °F 19.5 °F 18.1 °F 66% 30.40 in 10.0 mi South 9.2 mph - N/A   Overcast
12:55 AM 29.1 °F 22.1 °F 18.0 °F 63% 30.39 in 10.0 mi SW 6.9 mph - N/A   Overcast
1:15 AM 27.5 °F 21.1 °F 18.1 °F 68% 30.39 in 10.0 mi WSW 5.8 mph - N/A   Overcast
1:35 AM 26.1 °F 21.9 °F 17.6 °F 70% 30.39 in 10.0 mi West 3.5 mph - N/A   Overcast
1:55 AM 25.2 °F 18.3 °F 17.6 °F 73% 30.40 in 10.0 mi West 5.8 mph - N/A   Overcast
2:15 AM 26.2 °F - 17.2 °F 69% 30.39 in 10.0 mi Calm Calm - N/A   Overcast
2:35 AM 26.1 °F 19.4 °F 16.7 °F 68% 30.39 in 10.0 mi WSW 5.8 mph - N/A   Overcast
2:55 AM 27.1 °F 18.2 °F 16.9 °F 65% 30.39 in 10.0 mi WSW 9.2 mph - N/A   Overcast
3:15 AM 26.2 °F 17.8 °F 16.5 °F 67% 30.39 in 10.0 mi WSW 8.1 mph - N/A   Mostly Cloudy
3:35 AM 23.5 °F 15.4 °F 16.0 °F 73% 30.41 in 10.0 mi NNW 6.9 mph - N/A   Mostly Cloudy
3:55 AM 25.5 °F - 16.0 °F 67% 30.40 in 10.0 mi Calm Calm - N/A   Overcast
4:15 AM 22.5 °F - 14.9 °F 73% 30.40 in 10.0 mi Calm Calm - N/A   Mostly Cloudy
4:35 AM 20.7 °F 14.2 °F 14.2 °F 76% 30.39 in 10.0 mi West 4.6 mph - N/A   Scattered Clouds
4:55 AM 21.9 °F - 14.2 °F 72% 30.39 in 10.0 mi Calm Calm - N/A   Scattered Clouds
5:15 AM 18.0 °F 12.7 °F 12.2 °F 78% 30.40 in 10.0 mi North 3.5 mph - N/A   Scattered Clouds
5:35 AM 17.8 °F 12.5 °F 11.8 °F 78% 30.40 in 10.0 mi North 3.5 mph - N/A   Clear
5:55 AM 12.6 °F 2.2 °F 7.7 °F 81% 30.41 in 10.0 mi ENE 6.9 mph - N/A   Clear
6:15 AM 13.8 °F - 9.5 °F 83% 30.41 in 10.0 mi Calm Calm - N/A   Clear
6:35 AM 13.5 °F - 9.0 °F 82% 30.41 in 10.0 mi Calm Calm - N/A   Clear
6:55 AM 13.3 °F - 8.6 °F 82% 30.42 in 10.0 mi Calm Calm - N/A   Clear
7:15 AM 14.4 °F - 10.8 °F 86% 30.42 in 10.0 mi Calm Calm - N/A   Clear
7:35 AM 10.2 °F 2.0 °F 6.3 °F 84% 30.43 in 10.0 mi East 4.6 mph - N/A   Clear
7:55 AM 9.9 °F - 5.5 °F 83% 30.42 in 10.0 mi Calm Calm - N/A   Clear
8:15 AM 12.6 °F 6.5 °F 8.6 °F 84% 30.42 in 10.0 mi WSW 3.5 mph - N/A   Clear
8:35 AM 12.2 °F - 7.3 °F 81% 30.42 in 10.0 mi Calm Calm - N/A   Clear
8:55 AM 13.6 °F - 8.6 °F 80% 30.42 in 10.0 mi Calm Calm - N/A   Clear
9:15 AM 15.8 °F 8.6 °F 9.1 °F 75% 30.42 in 10.0 mi East 4.6 mph - N/A   Clear
9:35 AM 21.0 °F - 13.3 °F 72% 30.43 in 10.0 mi Calm Calm - N/A   Clear
9:55 AM 22.3 °F - 14.4 °F 72% 30.43 in 10.0 mi Calm Calm - N/A   Clear
10:15 AM 24.8 °F - 15.4 °F 68% 30.42 in 10.0 mi Calm Calm - N/A   Clear
10:35 AM 24.8 °F - 15.8 °F 69% 30.42 in 10.0 mi Calm Calm - N/A   Clear
10:55 AM 25.7 °F - 16.9 °F 69% 30.42 in 10.0 mi Calm Calm - N/A   Clear
11:15 AM 27.5 °F - 17.6 °F 66% 30.41 in 10.0 mi Calm Calm - N/A   Clear
11:35 AM 29.5 °F - 18.3 °F 63% 30.40 in 10.0 mi Calm Calm - N/A   Clear
11:55 AM 32.4 °F 29.1 °F 19.2 °F 58% 30.40 in 10.0 mi West 3.5 mph - N/A   Clear
12:15 PM 35.2 °F 30.3 °F 18.7 °F 51% 30.40 in 10.0 mi South 5.8 mph - N/A   Clear
12:35 PM 38.5 °F 30.3 °F 18.1 °F 44% 30.38 in 10.0 mi SSW 13.8 mph 18.4 mph N/A   Clear
12:55 PM 37.0 °F 30.4 °F 17.8 °F 46% 30.38 in 10.0 mi SSW 9.2 mph - N/A   Clear
1:15 PM 36.5 °F 30.3 °F 19.0 °F 49% 30.38 in 10.0 mi SSW 8.1 mph - N/A   Clear
1:35 PM 36.7 °F 30.5 °F 19.0 °F 49% 30.38 in 10.0 mi SSW 8.1 mph - N/A   Clear
1:55 PM 36.5 °F 30.3 °F 20.5 °F 52% 30.36 in 10.0 mi SW 8.1 mph - N/A   Clear
2:15 PM 37.0 °F 31.0 °F 19.0 °F 48% 30.36 in 10.0 mi SW 8.1 mph - N/A   Clear
2:35 PM 37.4 °F 29.8 °F 19.4 °F 48% 30.35 in 10.0 mi SSW 11.5 mph 17.3 mph N/A   Clear
2:55 PM 37.6 °F 30.5 °F 19.4 °F 48% 30.35 in 10.0 mi SSW 10.4 mph 17.3 mph N/A   Clear
3:15 PM 37.6 °F 30.5 °F 19.0 °F 47% 30.35 in 10.0 mi SSW 10.4 mph - N/A   Clear
3:35 PM 36.9 °F 28.7 °F 19.2 °F 49% 30.35 in 10.0 mi SSW 12.7 mph 17.3 mph N/A   Clear
3:55 PM 37.0 °F 28.9 °F 19.0 °F 48% 30.35 in 10.0 mi SSW 12.7 mph 19.6 mph N/A   Clear
4:15 PM 33.3 °F 26.4 °F 20.8 °F 60% 30.36 in 10.0 mi West 8.1 mph - N/A   Clear
4:35 PM 32.4 °F 29.1 °F 20.8 °F 63% 30.35 in 10.0 mi WNW 3.5 mph - N/A   Clear
4:55 PM 30.9 °F 26.2 °F 20.8 °F 66% 30.36 in 10.0 mi WNW 4.6 mph - N/A   Clear
5:15 PM 34.5 °F 29.4 °F 19.4 °F 54% 30.35 in 10.0 mi SSW 5.8 mph 16.1 mph N/A   Clear
5:35 PM 32.0 °F 25.6 °F 21.0 °F 64% 30.35 in 10.0 mi NW 6.9 mph - N/A   Clear
5:55 PM 32.5 °F 29.3 °F 20.5 °F 61% 30.35 in 10.0 mi WNW 3.5 mph - N/A   Clear
6:15 PM 32.0 °F 23.6 °F 21.6 °F 65% 30.36 in 10.0 mi West 10.4 mph - N/A   Clear
6:35 PM 32.9 °F 25.9 °F 20.5 °F 60% 30.36 in 10.0 mi WNW 8.1 mph - N/A   Clear
6:55 PM 32.2 °F 25.8 °F 20.8 °F 63% 30.37 in 10.0 mi NW 6.9 mph - N/A   Clear
7:15 PM 33.1 °F 26.1 °F 20.8 °F 61% 30.37 in 10.0 mi WNW 8.1 mph - N/A   Clear
7:35 PM 34.3 °F 29.2 °F 20.3 °F 57% 30.38 in 10.0 mi WNW 5.8 mph - N/A   Clear
7:55 PM 32.0 °F 27.5 °F 21.0 °F 64% 30.37 in 10.0 mi WSW 4.6 mph - N/A   Clear
8:15 PM 32.2 °F 28.9 °F 20.5 °F 62% 30.36 in 10.0 mi NW 3.5 mph - N/A   Clear
8:35 PM 32.0 °F 28.7 °F 20.7 °F 63% 30.36 in 10.0 mi NW 3.5 mph - N/A   Clear
8:55 PM 32.0 °F 26.4 °F 20.8 °F 63% 30.36 in 10.0 mi NW 5.8 mph - N/A   Scattered Clouds
9:15 PM 32.0 °F 25.6 °F 21.4 °F 65% 30.36 in 10.0 mi West 6.9 mph - N/A   Mostly Cloudy
9:35 PM 33.1 °F 24.9 °F 20.1 °F 59% 30.36 in 10.0 mi West 10.4 mph - N/A   Scattered Clouds
9:55 PM 33.4 °F 27.3 °F 20.3 °F 59% 30.36 in 10.0 mi West 6.9 mph 16.1 mph N/A   Mostly Cloudy
10:15 PM 30.7 °F 23.3 °F 19.9 °F 64% 30.37 in 10.0 mi WNW 8.1 mph - N/A   Scattered Clouds
10:35 PM 30.0 °F - 19.9 °F 66% 30.36 in 10.0 mi Calm Calm - N/A   Clear
10:55 PM 32.2 °F 25.8 °F 19.8 °F 60% 30.36 in 10.0 mi WSW 6.9 mph - N/A   Clear
11:15 PM 30.0 °F 21.1 °F 19.4 °F 65% 30.36 in 10.0 mi West 10.4 mph - N/A   Clear
11:35 PM 27.1 °F 16.4 °F 18.3 °F 69% 30.38 in 10.0 mi NNW 12.7 mph - N/A   Clear
11:55 PM 28.0 °F 18.6 °F 19.0 °F 69% 30.37 in 10.0 mi WNW 10.4 mph - N/A   Clear